Printer-friendly version
Follow the MPC on Twitter Follow the MPC on Facebook The MPC blog
Minor Planet Center

MPEC 2010-P46 : 2010 OK126

The following Minor Planet Electronic Circular may be linked-to from your own Web pages, but must not otherwise be redistributed electronically.

A form allowing access to any MPEC is at the bottom of this page.


Read MPEC 2010-P45 Read MPEC 2010-P47


M.P.E.C. 2010-P46                                Issued 2010 Aug. 10, 16:16 UT

     The Minor Planet Electronic Circulars contain information on unusual
         minor planets and routine data on comets.  They are published
   on behalf of Commission 20 of the International Astronomical Union by the
          Minor Planet Center, Smithsonian Astrophysical Observatory,
                          Cambridge, MA 02138, U.S.A.

             Prepared using the Tamkin Foundation Computer Network

                              MPC@CFA.HARVARD.EDU
       URL http://www.minorplanetcenter.org/iau/mpc.html  ISSN 1523-6714

                                  2010 OK126

Observations:
     K10OC6K* S2010 07 30.45285 03 07 36.46 -17 48 01.9          19   R EP046C51
     K10OC6K  s2010 07 30.45285 1 + 5525.7689 + 3511.5667 - 2217.5304   EP046C51
     K10OC6K  S2010 07 30.58515 03 07 18.70 -17 39 09.4                 EP046C51
     K10OC6K  s2010 07 30.58515 1 + 5517.9724 + 3524.2068 - 2216.8817   EP046C51
     K10OC6K  S2010 07 30.71733 03 07 00.84 -17 30 14.3                 EP046C51
     K10OC6K  s2010 07 30.71733 1 + 5525.3557 + 3559.8737 - 2139.6125   EP046C51
     K10OC6K  S2010 07 30.78355 03 06 51.85 -17 25 44.8                 EP046C51
     K10OC6K  s2010 07 30.78355 1 + 5513.3318 + 3554.0465 - 2180.0299   EP046C51
     K10OC6K  S2010 07 30.84963 03 06 42.86 -17 21 15.3                 EP046C51
     K10OC6K  s2010 07 30.84963 1 + 5516.7859 + 3571.7394 - 2141.7797   EP046C51
     K10OC6K  S2010 07 30.91572 03 06 33.83 -17 16 45.3                 EP046C51
     K10OC6K  s2010 07 30.91572 1 + 5520.1711 + 3589.7295 - 2102.4227   EP046C51
     K10OC6K QC2010 08 03.82308 02 56 42.69 -12 23 32.0          21   V EP046E12
     K10OC6K tC2010 08 06.42989 02 48 56.19 -08 35 21.5                 EP046291
     K10OC6K tC2010 08 06.43403 02 48 55.41 -08 34 59.0                 EP046291
     K10OC6K tC2010 08 06.43871 02 48 54.44 -08 34 31.6                 EP046291
     K10OC6K HC2010 08 06.44834 02 48 52.57 -08 33 39.4                 EP046691
     K10OC6K tC2010 08 06.45057 02 48 52.08 -08 33 25.7                 EP046291
     K10OC6K HC2010 08 06.45116 02 48 52.02 -08 33 22.4                 EP046691
     K10OC6K tC2010 08 06.45453 02 48 51.30 -08 33 03.4                 EP046291
     K10OC6K tC2010 08 06.45961 02 48 50.25 -08 32 34.3                 EP046291
     K10OC6K tC2010 08 06.46785 02 48 48.67 -08 31 49.4                 EP046291
     K10OC6K tC2010 08 06.47182 02 48 47.88 -08 31 27.1                 EP046291
     K10OC6K tC2010 08 06.47557 02 48 47.14 -08 31 05.8                 EP046291
     K10OC6K tC2010 08 09.42520 02 38 30.05 -03 34 59.9                 EP046291
     K10OC6K tC2010 08 09.42889 02 38 29.09 -03 34 34.6          20.6 V EP046291
     K10OC6K tC2010 08 09.43257 02 38 28.25 -03 34 11.2          20.6 V EP046291
     K10OC6K tC2010 08 10.44526 02 34 31.15 -01 42 44.5                 EP046291
     K10OC6K tC2010 08 10.44914 02 34 30.24 -01 42 19.7                 EP046291
     K10OC6K tC2010 08 10.45289 02 34 29.35 -01 41 54.8                 EP046291

Observer details:
291 LPL/Spacewatch II.  Observers R. S. McMillan, T. H. Bressi.  1.8-m f/2.7
    reflector + CCD.
691 Steward Observatory, Kitt Peak.  Observer R. S. McMillan.  0.9-m f/3
    reflector + CCD.
C51 WISE.  Measurers A. K. Mainzer, E. L. Wright, J. M. Bauer, T. Grav,
    J. W. Dailey, J. R. Masiero, R. M. Cutri, R. S. McMillan,
    R. G. Walker. (http://wise.ssl.berkeley.edu/mission_sci.html).
E12 Siding Spring Survey.  Observer R. H. McNaught.  0.5-m Uppsala Schmidt
    + CCD.

Orbital elements:
2010 OK126                                               Earth MOID = 0.1465 AU
Epoch 2010 July 23.0 TT = JDT 2455400.5                 MPC
M   4.91861              (2000.0)            P               Q
n   0.35896729     Peri.  321.04959     +0.58193531     +0.75862466
a   1.9607977      Node   338.35281     -0.39034109     -0.05549308
e   0.4485406      Incl.   52.58281     -0.71343193     +0.64916033
P   2.75           H   20.4           G   0.15           U   7
Residuals in seconds of arc
100730 C51  0.1-  0.2-    100806 291  0.2+  0.7-    100806 291  0.1+  0.1-
100730 C51  0.1-  0.0     100806 291  0.4-  0.6+    100806 291  0.2+  0.2+
100730 C51  0.1-  0.2+    100806 691  0.2+  1.0-    100809 291  1.3+  1.0-
100730 C51  0.2-  0.2+    100806 291  0.5-  0.2+    100809 291  0.1-  0.5+
100730 C51  0.0   0.3+    100806 691  0.4+  0.2+    100809 291  0.2+  0.2+
100730 C51  0.0   0.1-    100806 291  0.4-  0.3+    100810 291  1.0-  1.1+
100803 E12  0.7+  0.2-    100806 291  0.9-  1.0+    100810 291  0.2-  0.3-
100806 291  0.4-  0.0     100806 291  0.0   0.2-    100810 291  0.5+  0.7-

Ephemeris:
2010 OK126               a,e,i = 1.96, 0.45, 53                  q = 1.0813
Date    TT    R. A. (2000) Decl.     Delta      r     Elong.  Phase     V
2010 08 02    03 01.55   -14 47.3    0.433    1.112    91.3    65.8    21.1
2010 08 12    02 27.99   +01 18.4    0.341    1.143   103.6    59.5    20.5
2010 08 22    01 28.76   +24 30.7    0.298    1.181   118.0    49.1    20.0
2010 09 01    23 53.30   +45 00.9    0.333    1.227   124.0    43.0    20.1
2010 09 11    22 08.16   +53 00.6    0.427    1.278   120.5    42.8    20.7
2010 09 21    20 57.63   +53 15.8    0.551    1.333   114.9    43.1    21.4
2010 10 01    20 21.86   +51 26.8    0.685    1.391   109.8    42.6    21.9

Sonia Keys                   (C) Copyright 2010 MPC           M.P.E.C. 2010-P46

Read MPEC 2010-P45 Read MPEC 2010-P47


MPEC number:

Enter an MPEC number in one of the following forms:

  • 1997-B01 (the full form)
  • J97B01 (the packed version of the full form)
  • B01 (the abbreviated form)

Valid HTML 4.01!